W2JV-2 Weather Reports


Display with metric or nautical units.
time (UTC)temp
F
wind
direction
speed
MPH
gust
MPH
rain 1hr
in
rain 24hr
in
rain mn
in
humidity
%
barometer
mb
20260904074002 74 292 0.0 0.0 0.00 0.35 0.34 88 1009.6
20260904073502 74 292 0.0 0.0 0.00 0.35 0.34 88 1009.6
20260904073002 74 292 0.0 1.0 0.02 0.35 0.34 87 1009.5
20260904072502 74 292 0.0 2.0 0.20 0.35 0.34 87 1009.4
20260904072004 74 260 0.0 2.0 0.21 0.36 0.34 87 1009.5
20260904071503 75 257 0.0 0.0 0.21 0.36 0.34 87 1009.4
20260904071002 75 257 0.0 0.0 0.21 0.36 0.34 87 1009.6
20260904070502 75 330 0.0 0.0 0.22 0.36 0.34 87 1009.8
20260904065503 75 15 0.0 3.0 0.34 0.36 0.34 87 1009.8
20260904065003 75 30 1.0 3.0 0.34 0.36 0.34 87 1010.0
20260904064003 75 346 1.0 2.0 0.34 0.36 0.34 86 1009.8
20260904063502 75 257 2.0 3.0 0.34 0.37 0.34 86 1009.7
20260904063003 75 47 2.0 3.0 0.32 0.35 0.32 85 1009.8
20260904062503 76 297 0.0 0.0 0.14 0.17 0.14 85 1010.1
20260904062004 76 34 0.0 1.0 0.13 0.16 0.13 85 1009.9
20260904061503 76 34 1.0 2.0 0.13 0.16 0.13 84 1010.0
20260904061002 76 138 1.0 3.0 0.13 0.16 0.13 84 1010.1
20260904060503 76 3 2.0 8.0 0.12 0.15 0.12 84 1010.4
20260904060003 76 54 2.0 5.0 0.11 0.14 0.11 84 1010.4
20260904055503 76 348 1.0 3.0 0.00 0.03 0.00 84 1010.4
20260904055003 76 212 0.0 0.0 0.00 0.04 0.00 84 1010.1
20260904054003 76 212 0.0 0.0 0.00 0.04 0.00 84 1010.3
20260904053003 76 212 0.0 0.0 0.00 0.04 0.00 84 1010.3
20260904052503 76 212 0.0 0.0 0.00 0.04 0.00 84 1010.6
20260904052003 76 212 0.0 0.0 0.00 0.05 0.00 84 1010.5
20260904051502 76 212 1.0 3.0 0.00 0.05 0.00 84 1010.7
20260904051002 76 226 1.0 2.0 0.00 0.05 0.00 84 1010.6
20260904050502 76 230 2.0 3.0 0.00 0.05 0.00 83 1010.7
20260904050002 76 223 1.0 2.0 0.00 0.05 0.00 83 1010.6
20260904044503 76 198 1.0 3.0 0.00 0.05 0.00 84 1010.8
20260904044003 76 198 1.0 3.0 0.00 0.05 0.00 84 1011.0
20260904043504 76 202 1.0 3.0 0.00 0.05 0.00 84 1011.0
20260904042503 76 216 2.0 3.0 0.00 0.05 0.00 84 1011.2
20260904042004 76 226 2.0 3.0 0.00 0.05 0.00 84 1011.2
20260904041503 76 209 2.0 3.0 0.00 0.05 0.00 83 1011.2
20260904041003 76 221 1.0 3.0 0.00 0.05 0.00 83 1011.1
20260904040504 76 209 1.0 3.0 0.00 0.05 0.00 83 1011.0
20260904040003 76 210 1.0 3.0 0.00 0.05 0.00 83 1011.1
20260904035503 76 240 1.0 2.0 0.00 0.05 0.05 83 1011.3
20260904033503 76 184 1.0 2.0 0.00 0.05 0.05 83 1011.2
20260904033003 76 219 1.0 3.0 0.00 0.05 0.05 83 1011.2
20260904032004 76 186 1.0 2.0 0.00 0.05 0.05 83 1011.0
20260904031003 76 202 1.0 3.0 0.00 0.05 0.05 83 1011.3
20260904030504 76 231 1.0 2.0 0.00 0.05 0.05 83 1011.3
20260904030002 76 204 1.0 2.0 0.00 0.05 0.05 83 1011.3
20260904025503 76 167 1.0 2.0 0.00 0.05 0.05 83 1011.5
20260904025004 76 166 1.0 3.0 0.00 0.05 0.05 83 1011.5
20260904024503 76 219 1.0 3.0 0.00 0.05 0.05 83 1011.7
20260904024003 76 212 1.0 2.0 0.00 0.05 0.05 83 1011.8
20260904023503 76 201 1.0 3.0 0.00 0.05 0.05 83 1011.8
20260904023003 76 219 1.0 3.0 0.00 0.05 0.05 83 1011.9
20260904022503 76 212 1.0 3.0 0.00 0.05 0.05 83 1012.0
20260904021503 76 182 0.0 0.0 0.00 0.05 0.05 83 1012.0
20260904020504 76 182 0.0 0.0 0.00 0.05 0.05 82 1011.9
20260904015003 76 182 0.0 0.0 0.00 0.05 0.05 82 1011.9
20260904014503 76 182 0.0 0.0 0.00 0.05 0.05 82 1012.1
20260904014003 76 182 0.0 2.0 0.00 0.05 0.05 82 1012.1
20260904013502 76 182 1.0 2.0 0.00 0.05 0.05 82 1012.1
20260904013002 76 182 1.0 2.0 0.00 0.05 0.05 82 1012.3
20260904012503 76 182 0.0 0.0 0.00 0.05 0.05 82 1012.3
20260904012003 76 182 0.0 0.0 0.00 0.05 0.05 81 1012.2
20260904011503 76 182 0.0 0.0 0.00 0.05 0.05 81 1012.1
20260904011004 76 182 0.0 2.0 0.00 0.05 0.05 81 1012.1
20260904010004 76 182 0.0 0.0 0.00 0.05 0.05 81 1012.3
20260904005503 76 182 0.0 0.0 0.00 0.05 0.05 81 1012.4
20260904004503 76 182 1.0 2.0 0.00 0.05 0.05 81 1012.2
20260904004003 77 182 1.0 2.0 0.00 0.05 0.05 81 1012.0
20260904003004 77 182 1.0 2.0 0.00 0.05 0.05 80 1011.9
20260904002504 77 209 1.0 2.0 0.00 0.05 0.05 80 1012.0
20260904002003 77 190 1.0 3.0 0.00 0.05 0.05 80 1012.0
20260904001504 77 215 1.0 3.0 0.00 0.05 0.05 80 1012.0
20260904001004 77 207 0.0 0.0 0.00 0.05 0.05 80 1011.9
20260904000504 77 207 0.0 2.0 0.00 0.05 0.05 80 1011.9
20260903235003 78 189 1.0 2.0 0.00 0.05 0.05 79 1011.6
20260903234504 78 199 0.0 2.0 0.00 0.05 0.05 79 1011.4
20260903234004 78 172 0.0 3.0 0.00 0.05 0.05 79 1011.3
20260903233504 79 163 1.0 2.0 0.00 0.05 0.05 79 1011.3
20260903233003 79 188 0.0 0.0 0.00 0.05 0.05 79 1011.4
20260903232002 79 210 0.0 2.0 0.00 0.05 0.05 78 1011.4
20260903231504 80 210 0.0 2.0 0.00 0.05 0.05 78 1011.4
20260903230503 80 226 0.0 0.0 0.00 0.05 0.05 78 1011.7
20260903230003 80 226 0.0 0.0 0.00 0.05 0.05 78 1011.7
20260903225503 81 226 0.0 0.0 0.00 0.05 0.05 78 1011.7
20260903225003 81 226 0.0 0.0 0.00 0.05 0.05 77 1011.8
20260903224503 81 226 0.0 1.0 0.00 0.05 0.05 77 1011.9
20260903223503 81 259 0.0 1.0 0.00 0.05 0.05 77 1011.9
20260903223003 81 259 0.0 1.0 0.00 0.05 0.05 77 1011.9
20260903222504 81 206 0.0 1.0 0.00 0.05 0.05 78 1011.9
20260903222004 81 206 0.0 3.0 0.00 0.05 0.05 77 1011.8
20260903221003 81 129 0.0 0.0 0.00 0.05 0.05 76 1011.7
20260903220002 82 129 0.0 0.0 0.00 0.05 0.05 76 1011.8
20260903215503 82 129 0.0 0.0 0.00 0.05 0.05 76 1011.8
20260903215004 82 129 0.0 0.0 0.00 0.05 0.05 76 1011.8
20260903214003 82 129 0.0 0.0 0.00 0.05 0.05 76 1011.8
20260903213003 82 129 0.0 0.0 0.00 0.05 0.05 76 1011.8
20260903212504 82 130 0.0 0.0 0.00 0.05 0.05 76 1011.8
20260903212003 82 130 0.0 0.0 0.00 0.05 0.05 76 1011.8
20260903211504 82 326 0.0 0.0 0.00 0.05 0.05 76 1011.8
20260903211003 82 68 0.0 0.0 0.00 0.05 0.05 76 1011.7
20260903210503 82 68 0.0 0.0 0.00 0.05 0.05 75 1011.7
20260903210003 82 67 0.0 0.0 0.00 0.05 0.05 75 1011.7
20260903205504 82 68 0.0 0.0 0.00 0.05 0.05 75 1011.7
20260903205003 83 33 0.0 0.0 0.00 0.05 0.05 75 1011.8
20260903204004 83 86 0.0 0.0 0.00 0.05 0.05 75 1011.8
20260903203503 83 186 0.0 0.0 0.00 0.06 0.05 76 1011.8
20260903201004 82 186 0.0 1.0 0.00 0.13 0.05 76 1011.8
20260903200503 82 35 0.0 2.0 0.00 0.18 0.05 76 1011.9
20260903195503 82 28 0.0 0.0 0.00 0.26 0.05 75 1012.0
20260903194003 82 2 0.0 2.0 0.00 0.30 0.05 75 1012.2
20260903193003 83 249 0.0 0.0 0.00 0.32 0.05 74 1012.1
20260903192503 83 249 0.0 1.0 0.00 0.32 0.05 75 1012.2
20260903192003 83 239 0.0 1.0 0.00 0.32 0.05 75 1012.2
20260903191503 83 27 0.0 0.0 0.00 0.32 0.05 74 1012.3
20260903191003 83 30 0.0 2.0 0.00 0.32 0.05 73 1012.3
20260903190503 83 228 0.0 3.0 0.00 0.32 0.05 73 1012.3
20260903190003 84 356 1.0 3.0 0.00 0.32 0.05 73 1012.5
20260903185503 84 287 0.0 3.0 0.00 0.32 0.05 73 1012.5
20260903185003 84 16 0.0 3.0 0.00 0.32 0.05 74 1012.6
20260903184503 84 274 2.0 6.0 0.00 0.32 0.05 74 1012.5
20260903184005 84 239 2.0 5.0 0.00 0.32 0.05 74 1012.6
20260903183503 83 243 1.0 5.0 0.00 0.32 0.05 74 1012.5
20260903183003 83 264 1.0 3.0 0.00 0.32 0.05 74 1012.6
20260903182503 83 9 1.0 3.0 0.00 0.32 0.05 75 1012.5
20260903181503 83 262 2.0 5.0 0.00 0.32 0.05 75 1012.6
20260903181003 83 233 3.0 7.0 0.00 0.32 0.05 76 1012.6
20260903180503 82 206 1.0 3.0 0.00 0.32 0.05 76 1012.8
20260903180003 82 222 2.0 5.0 0.00 0.32 0.05 77 1012.8
20260903175504 82 222 2.0 3.0 0.00 0.32 0.05 77 1012.9
20260903175004 82 327 2.0 5.0 0.00 0.32 0.05 77 1012.9
20260903174503 82 255 2.0 3.0 0.00 0.32 0.05 76 1013.0
20260903174004 81 356 1.0 3.0 0.00 0.32 0.05 77 1013.0
20260903173503 81 294 1.0 3.0 0.00 0.32 0.05 77 1013.0
20260903173004 81 323 2.0 6.0 0.00 0.32 0.05 78 1013.1
20260903172504 81 274 2.0 5.0 0.00 0.32 0.05 79 1013.1
20260903172003 80 263 2.0 5.0 0.00 0.32 0.05 79 1013.3
20260903171502 80 242 2.0 6.0 0.00 0.32 0.05 79 1013.3
20260903171003 80 290 1.0 5.0 0.00 0.32 0.05 79 1013.2
20260903170503 80 250 3.0 5.0 0.00 0.32 0.05 81 1013.2
20260903170004 80 320 1.0 3.0 0.00 0.32 0.05 81 1013.2
20260903165503 80 241 1.0 3.0 0.00 0.32 0.05 80 1013.4
20260903165003 80 199 2.0 3.0 0.00 0.32 0.05 80 1013.4
20260903164004 80 251 2.0 6.0 0.00 0.32 0.05 82 1013.3
20260903163503 79 309 2.0 6.0 0.00 0.32 0.05 81 1013.3
20260903163004 79 323 2.0 5.0 0.00 0.32 0.05 82 1013.4
20260903162503 79 287 2.0 3.0 0.00 0.32 0.05 82 1013.4
20260903162003 78 258 1.0 3.0 0.00 0.32 0.05 82 1013.5
20260903161503 78 278 2.0 7.0 0.00 0.32 0.05 83 1013.6
20260903160504 78 226 2.0 6.0 0.00 0.32 0.05 84 1013.7
20260903160003 77 271 2.0 5.0 0.00 0.32 0.05 84 1013.7
20260903155503 77 272 2.0 6.0 0.00 0.32 0.05 85 1013.8
20260903154510 77 242 2.0 5.0 0.00 0.32 0.05 86 1013.8
20260903153503 77 202 2.0 3.0 0.00 0.32 0.05 87 1013.8
20260903153004 76 280 0.0 3.0 0.00 0.32 0.05 87 1013.8
20260903152504 76 208 2.0 3.0 0.00 0.32 0.05 87 1013.8
20260903152004 76 203 2.0 7.0 0.00 0.32 0.05 87 1013.9
20260903151503 75 196 2.0 3.0 0.00 0.32 0.05 88 1013.9
20260903150503 75 259 2.0 5.0 0.00 0.32 0.05 88 1014.1
20260903145004 75 217 3.0 5.0 0.00 0.32 0.05 88 1014.2
20260903144503 75 206 2.0 5.0 0.00 0.32 0.05 88 1014.2
20260903144003 75 240 2.0 5.0 0.00 0.32 0.05 89 1014.2
20260903143504 75 182 2.0 5.0 0.00 0.32 0.05 89 1014.0
20260903143004 75 224 2.0 3.0 0.00 0.32 0.05 89 1013.9
20260903142503 75 188 1.0 3.0 0.00 0.32 0.05 89 1013.9
20260903142004 74 266 2.0 5.0 0.00 0.32 0.05 89 1014.0
20260903141503 74 252 2.0 3.0 0.00 0.32 0.05 89 1014.1
20260903141004 74 271 2.0 3.0 0.00 0.32 0.05 89 1014.2
20260903140503 74 210 1.0 3.0 0.00 0.32 0.05 89 1014.3
20260903140004 74 214 2.0 5.0 0.00 0.32 0.05 89 1014.3
20260903135503 73 247 2.0 7.0 0.00 0.32 0.05 89 1014.2
20260903135003 73 204 1.0 2.0 0.00 0.32 0.05 89 1013.9
20260903134503 73 221 2.0 5.0 0.00 0.32 0.05 89 1014.2
20260903134003 72 222 2.0 3.0 0.00 0.32 0.05 89 1014.3
20260903133503 72 230 2.0 3.0 0.00 0.32 0.05 89 1014.3
20260903133004 73 243 2.0 3.0 0.00 0.32 0.05 89 1014.3
20260903132504 73 194 1.0 2.0 0.00 0.32 0.05 89 1014.4
20260903132003 73 228 0.0 0.0 0.00 0.32 0.05 89 1014.7
20260903131503 73 228 0.0 0.0 0.00 0.32 0.05 89 1014.7
20260903131004 73 228 0.0 0.0 0.00 0.32 0.05 89 1014.7
20260903130503 72 228 0.0 0.0 0.00 0.32 0.05 89 1014.8
20260903130003 72 228 0.0 0.0 0.00 0.32 0.05 89 1015.0
20260903125503 72 228 0.0 2.0 0.00 0.32 0.05 89 1015.1
20260903125003 72 223 1.0 3.0 0.00 0.32 0.05 89 1014.7
20260903124504 72 164 0.0 1.0 0.00 0.32 0.05 89 1014.9
20260903124003 72 172 0.0 1.0 0.00 0.32 0.05 89 1015.2
20260903123504 72 172 0.0 1.0 0.00 0.32 0.05 89 1015.1
20260903123003 72 172 0.0 1.0 0.00 0.32 0.05 89 1015.2
20260903122504 72 172 1.0 2.0 0.00 0.32 0.05 89 1015.3
20260903122004 72 172 0.0 2.0 0.00 0.32 0.05 89 1015.2
20260903121503 72 182 1.0 2.0 0.00 0.32 0.05 89 1015.1
20260903121003 72 182 0.0 2.0 0.00 0.32 0.05 89 1015.2
20260903120504 72 182 0.0 0.0 0.00 0.32 0.05 89 1015.2
20260903115004 71 182 0.0 1.0 0.00 0.32 0.05 89 1015.0
20260903114503 71 182 0.0 1.0 0.00 0.32 0.05 89 1015.1
20260903113004 71 182 0.0 2.0 0.00 0.32 0.05 89 1015.2
20260903112004 71 182 1.0 2.0 0.00 0.32 0.05 89 1015.0
20260903111504 71 182 0.0 0.0 0.00 0.32 0.05 89 1014.9
20260903111004 71 182 0.0 0.0 0.00 0.32 0.05 89 1015.1
20260903110504 71 182 0.0 0.0 0.00 0.32 0.05 89 1015.2
20260903110003 71 182 0.0 0.0 0.00 0.32 0.05 89 1015.4
20260903105503 71 182 0.0 0.0 0.00 0.32 0.05 89 1015.4
20260903104005 71 123 0.0 2.0 0.00 0.32 0.05 89 1015.4
20260903103503 71 252 2.0 3.0 0.00 0.32 0.05 89 1015.3
20260903103004 71 296 0.0 2.0 0.00 0.32 0.05 89 1014.8
20260903102505 71 172 1.0 3.0 0.00 0.32 0.05 89 1014.7
20260903102003 71 175 0.0 2.0 0.00 0.32 0.05 89 1014.8
20260903101504 71 182 0.0 2.0 0.00 0.32 0.05 89 1014.8
20260903101003 71 208 2.0 3.0 0.00 0.32 0.05 89 1014.6
20260903100003 71 243 1.0 3.0 0.00 0.32 0.05 89 1014.8
20260903095503 71 242 1.0 3.0 0.00 0.32 0.05 89 1014.6
20260903095003 71 218 1.0 3.0 0.00 0.32 0.05 89 1014.4
20260903094003 70 214 2.0 3.0 0.00 0.32 0.05 89 1014.5
20260903093004 70 203 1.0 3.0 0.00 0.32 0.05 89 1014.3
20260903092503 70 206 2.0 3.0 0.00 0.32 0.05 89 1014.3
20260903091004 70 210 0.0 0.0 0.00 0.32 0.05 89 1014.2
20260903090503 70 221 1.0 3.0 0.00 0.32 0.05 89 1014.2
20260903090004 70 199 1.0 3.0 0.00 0.32 0.05 89 1014.3
20260903085504 70 218 1.0 3.0 0.00 0.32 0.05 89 1014.5
20260903085004 70 241 2.0 5.0 0.01 0.32 0.05 89 1014.7
20260903084004 69 211 1.0 3.0 0.01 0.32 0.05 89 1014.8
20260903083503 69 232 1.0 3.0 0.01 0.32 0.05 89 1014.7
20260903083005 69 221 1.0 2.0 0.01 0.32 0.05 89 1014.7
20260903082504 69 154 1.0 2.0 0.01 0.32 0.05 89 1014.5
20260903082004 69 172 0.0 0.0 0.02 0.32 0.05 89 1014.6
20260903081503 69 216 0.0 0.0 0.02 0.32 0.05 89 1014.9
20260903081003 69 184 0.0 0.0 0.02 0.32 0.05 89 1015.0
20260903080503 69 172 0.0 0.0 0.02 0.32 0.05 89 1015.2
20260903080003 69 201 0.0 0.0 0.02 0.32 0.05 89 1015.3
20260903075003 70 232 0.0 0.0 0.01 0.31 0.04 89 1015.5
20260903074503 70 232 0.0 0.0 0.01 0.31 0.04 89 1015.6